When you browse on this site, cookies collect data to enhance your experience and personalize the content and advertising you see.
Visit our Privacy Policy to learn more. By continuing to use the site, you agree to this use of cookies and data.
  • In United Kingdom
  • List of Countries
  • For 7 days
  • Water Temperature
  • Satellite Maps
  • Weather Map
  • Weather Widgets
  • user-avatar
    Login

    Hourly Weather Mbandaka

    Today, 24 March, Sunday

    Time Temperature Precipitation Wind Pressure Humidity
    00:00 +26°C° 0.2 mm 1 mps 729 mmHg 92%
    01:00 +25°C° 0 mm 1 mps 729 mmHg 94%
    02:00 +25°C° 0.6 mm 1 mps 729 mmHg 95%
    03:00 +25°C° 0.6 mm 1 mps 729 mmHg 96%
    04:00 +25°C° 0.6 mm 1 mps 729 mmHg 97%
    05:00 +25°C° 0 mm 1 mps 729 mmHg 95%
    06:00 +25°C° 0 mm 2 mps 729 mmHg 94%
    07:00 +26°C° 0 mm 2 mps 730 mmHg 91%
    08:00 +28°C° 0 mm 2 mps 730 mmHg 79%
    09:00 +31°C° 0 mm 2 mps 731 mmHg 67%
    10:00 +34°C° 0 mm 2 mps 731 mmHg 55%
    11:00 +32°C° 2.1 mm 2 mps 731 mmHg 64%
    12:00 +31°C° 2.1 mm 2 mps 730 mmHg 74%
    13:00 +29°C° 0 mm 1 mps 730 mmHg 85%
    14:00 +29°C° 1.3 mm 1 mps 729 mmHg 87%
    15:00 +28°C° 1.3 mm 1 mps 729 mmHg 89%
    16:00 +27°C° 1.3 mm 1 mps 729 mmHg 92%
    17:00 +27°C° 0 mm 1 mps 729 mmHg 93%
    18:00 +26°C° 0 mm 1 mps 729 mmHg 94%
    19:00 +23°C° 0 mm 0 mps 728 mmHg 96%
    20:00 +23°C° 0 mm 0 mps 729 mmHg 95%
    21:00 +25°C° 0 mm 1 mps 729 mmHg 95%
    22:00 +24°C° 0 mm 1 mps 730 mmHg 94%
    23:00 +24°C° 0.2 mm 1 mps 730 mmHg 95%

    Tomorrow, 25 March, Monday

    Time Temperature Precipitation Wind Pressure Humidity
    00:00 +24°C° 0.2 mm 1 mps 730 mmHg 96%
    01:00 +22°C° 0.2 mm 0 mps 730 mmHg 96%
    02:00 +24°C° 2.5 mm 1 mps 730 mmHg 97%
    03:00 +24°C° 2.5 mm 1 mps 730 mmHg 98%
    04:00 +24°C° 2.5 mm 1 mps 731 mmHg 98%
    05:00 +24°C° 1.4 mm 1 mps 731 mmHg 98%
    06:00 +24°C° 1.4 mm 1 mps 731 mmHg 97%
    07:00 +24°C° 1.4 mm 1 mps 732 mmHg 97%
    08:00 +26°C° 0 mm 2 mps 732 mmHg 89%
    09:00 +27°C° 0 mm 2 mps 732 mmHg 81%
    10:00 +29°C° 0 mm 2 mps 733 mmHg 73%
    11:00 +31°C° 0 mm 2 mps 732 mmHg 63%
    12:00 +34°C° 0 mm 2 mps 731 mmHg 54%
    13:00 +36°C° 0 mm 2 mps 730 mmHg 44%
    14:00 +36°C° 0 mm 2 mps 730 mmHg 45%
    15:00 +36°C° 0 mm 2 mps 729 mmHg 46%
    16:00 +35°C° 0 mm 2 mps 728 mmHg 46%
    17:00 +32°C° 0 mm 2 mps 729 mmHg 55%
    18:00 +30°C° 0 mm 1 mps 729 mmHg 64%
    19:00 +28°C° 0 mm 1 mps 729 mmHg 72%
    20:00 +27°C° 0 mm 1 mps 729 mmHg 76%
    21:00 +27°C° 0 mm 1 mps 730 mmHg 79%
    22:00 +26°C° 0 mm 1 mps 730 mmHg 83%
    23:00 +26°C° 0.2 mm 1 mps 730 mmHg 86%

    Day after tomorrow, 26 March, Tuesday

    Time Temperature Precipitation Wind Pressure Humidity
    00:00 +25°C° 0.2 mm 1 mps 730 mmHg 89%
    01:00 +25°C° 0.2 mm 1 mps 730 mmHg 92%
    02:00 +25°C° 0 mm 1 mps 730 mmHg 91%
    03:00 +25°C° 0 mm 1 mps 730 mmHg 90%
    04:00 +25°C° 0 mm 1 mps 730 mmHg 89%
    05:00 +25°C° 0 mm 1 mps 730 mmHg 89%
    06:00 +25°C° 0 mm 1 mps 731 mmHg 88%
    07:00 +25°C° 0 mm 1 mps 731 mmHg 87%
    08:00 +27°C° 0 mm 1 mps 732 mmHg 77%
    09:00 +29°C° 0 mm 1 mps 733 mmHg 67%
    10:00 +31°C° 0 mm 1 mps 733 mmHg 56%
    11:00 +33°C° 0 mm 1 mps 732 mmHg 52%
    12:00 +34°C° 0 mm 1 mps 732 mmHg 48%
    13:00 +36°C° 0 mm 2 mps 731 mmHg 44%
    14:00 +34°C° 0.1 mm 2 mps 731 mmHg 53%
    15:00 +31°C° 0.1 mm 1 mps 730 mmHg 61%
    16:00 +30°C° 0.1 mm 1 mps 730 mmHg 70%
    17:00 +28°C° 0.1 mm 1 mps 730 mmHg 75%
    18:00 +27°C° 0.1 mm 1 mps 730 mmHg 81%
    19:00 +24°C° 0.1 mm 0 mps 730 mmHg 86%
    20:00 +23°C° 0 mm 0 mps 730 mmHg 86%
    21:00 +23°C° 0 mm 0 mps 730 mmHg 86%
    22:00 +23°C° 0 mm 0 mps 731 mmHg 86%
    23:00 +22°C° 0 mm 0 mps 731 mmHg 87%

    27 March, Wednesday

    Time Temperature Precipitation Wind Pressure Humidity
    00:00 +22°C° 0 mm 0 mps 731 mmHg 89%
    01:00 +22°C° 0 mm 0 mps 731 mmHg 91%
    02:00 +21°C° 0 mm 0 mps 731 mmHg 92%
    03:00 +21°C° 0 mm 0 mps 731 mmHg 94%
    04:00 +21°C° 0 mm 0 mps 731 mmHg 95%
    05:00 +22°C° 0 mm 0 mps 731 mmHg 91%
    06:00 +22°C° 0 mm 0 mps 732 mmHg 87%
    07:00 +23°C° 0 mm 0 mps 732 mmHg 83%
    08:00 +26°C° 0 mm 0 mps 733 mmHg 72%
    09:00 +32°C° 0 mm 1 mps 733 mmHg 60%
    10:00 +35°C° 0 mm 1 mps 734 mmHg 48%
    11:00 +36°C° 0 mm 1 mps 733 mmHg 43%
    12:00 +39°C° 0 mm 1 mps 732 mmHg 39%
    13:00 +37°C° 0 mm 0 mps 731 mmHg 34%
    14:00 +36°C° 0 mm 0 mps 731 mmHg 35%
    15:00 +35°C° 0 mm 0 mps 730 mmHg 37%
    16:00 +36°C° 0 mm 1 mps 729 mmHg 38%
    17:00 +32°C° 0 mm 0 mps 730 mmHg 45%
    18:00 +30°C° 0 mm 0 mps 730 mmHg 51%
    19:00 +28°C° 0 mm 0 mps 730 mmHg 58%
    20:00 +27°C° 0 mm 0 mps 731 mmHg 60%
    21:00 +26°C° 0 mm 0 mps 731 mmHg 63%
    22:00 +26°C° 0 mm 0 mps 731 mmHg 65%
    23:00 +25°C° 0 mm 0 mps 731 mmHg 68%

    28 March, Thursday

    Time Temperature Precipitation Wind Pressure Humidity
    00:00 +25°C° 0 mm 0 mps 730 mmHg 70%
    01:00 +24°C° 0 mm 0 mps 730 mmHg 72%
    02:00 +24°C° 0 mm 0 mps 730 mmHg 73%
    03:00 +24°C° 0 mm 0 mps 730 mmHg 75%
    04:00 +24°C° 0 mm 0 mps 730 mmHg 76%
    05:00 +25°C° 0 mm 0 mps 731 mmHg 74%
    06:00 +25°C° 0 mm 0 mps 731 mmHg 73%
    07:00 +26°C° 0 mm 0 mps 732 mmHg 71%
    08:00 +31°C° 0 mm 1 mps 733 mmHg 60%
    09:00 +34°C° 0 mm 1 mps 733 mmHg 49%
    10:00 +37°C° 0 mm 1 mps 733 mmHg 38%
    11:00 +37°C° 0 mm 1 mps 732 mmHg 38%
    12:00 +37°C° 0 mm 1 mps 731 mmHg 38%
    13:00 +37°C° 0 mm 1 mps 730 mmHg 38%
    14:00 +37°C° 0 mm 1 mps 730 mmHg 38%
    15:00 +37°C° 0 mm 1 mps 729 mmHg 38%
    16:00 +35°C° 0 mm 0 mps 729 mmHg 39%
    17:00 +33°C° 0 mm 0 mps 729 mmHg 45%
    18:00 +33°C° 0 mm 1 mps 730 mmHg 50%
    19:00 +31°C° 0 mm 1 mps 730 mmHg 56%
    20:00 +30°C° 0 mm 1 mps 730 mmHg 59%
    21:00 +29°C° 0 mm 1 mps 730 mmHg 61%
    22:00 +28°C° 0 mm 1 mps 730 mmHg 64%
    23:00 +27°C° 0 mm 1 mps 730 mmHg 65%

    29 March, Friday

    Time Temperature Precipitation Wind Pressure Humidity
    00:00 +27°C° 0 mm 1 mps 730 mmHg 66%
    01:00 +26°C° 0 mm 1 mps 729 mmHg 67%
    02:00 +26°C° 0 mm 1 mps 729 mmHg 69%
    03:00 +25°C° 0 mm 1 mps 729 mmHg 71%
    04:00 +25°C° 0 mm 1 mps 730 mmHg 73%
    05:00 +24°C° 0 mm 0 mps 730 mmHg 71%
    06:00 +24°C° 0 mm 0 mps 731 mmHg 69%
    07:00 +25°C° 0 mm 0 mps 731 mmHg 67%
    08:00 +30°C° 0 mm 1 mps 732 mmHg 56%
    09:00 +33°C° 0 mm 1 mps 732 mmHg 45%
    10:00 +38°C° 0 mm 2 mps 732 mmHg 34%
    11:00 +38°C° 0 mm 2 mps 731 mmHg 35%
    12:00 +36°C° 0 mm 1 mps 730 mmHg 35%
    13:00 +36°C° 0 mm 1 mps 729 mmHg 36%
    14:00 +37°C° 0 mm 1 mps 729 mmHg 36%
    15:00 +37°C° 0 mm 1 mps 728 mmHg 36%
    16:00 +37°C° 0 mm 1 mps 728 mmHg 35%
    17:00 +35°C° 0 mm 1 mps 728 mmHg 41%
    18:00 +30°C° 0 mm 0 mps 729 mmHg 47%
    19:00 +28°C° 0 mm 0 mps 729 mmHg 53%
    20:00 +27°C° 0 mm 0 mps 729 mmHg 54%
    21:00 +27°C° 0 mm 0 mps 729 mmHg 56%
    22:00 +26°C° 0 mm 0 mps 730 mmHg 57%
    23:00 +26°C° 0 mm 0 mps 729 mmHg 60%
    Show more